Simultaneous Nadir Overpasses (SNOs) Predictions

Prediction of SNOs between AURA and NPP Satellite Orbit:

Table of predicted SNOs for the next 14.0 days since TLE Epoch: 2/28/2020
Index Date (AURA) Time (AURA) Lat,Lon (AURA) SZA (AURA ) Date (NPP) Time (NPP) Lat,Lon (NPP) SZA (NPP ) Distance(km) Time Diff (sec)
1 02/29/2020 11:25:10 -79.59, 86.28 79.64 02/29/2020 11:24:11 -79.59, 86.33 79.61 1.04 59
2 02/29/2020 12:14:31 79.77,-104.73 100.07 02/29/2020 12:14:50 79.77,-104.78 100.07 1.16 19
3 03/03/2020 03:41:38 -79.67,-157.22 80.80 03/03/2020 03:41:04 -79.68,-157.07 80.81 3.15 34
4 03/03/2020 04:30:58 79.85, 11.79 98.92 03/03/2020 04:31:42 79.86, 11.84 98.87 1.10 44
5 03/05/2020 19:58:06 -79.72, -41.01 81.91 03/05/2020 19:57:58 -79.71, -41.04 81.90 0.65 8
6 03/05/2020 20:47:27 79.89, 127.99 97.81 03/05/2020 20:48:37 79.88, 127.86 97.78 2.66 70
7 03/08/2020 11:25:12 79.60, -93.63 97.23 03/08/2020 11:24:12 79.60, -93.57 97.26 1.20 60
8 03/08/2020 12:14:33 -79.83, 75.72 83.14 03/08/2020 12:14:50 -79.83, 75.84 83.18 2.51 17
9 03/11/2020 03:41:41 79.63, 22.49 96.11 03/11/2020 03:41:07 79.63, 22.41 96.15 1.67 34
10 03/11/2020 04:31:02 -79.86,-168.14 84.26 03/11/2020 04:31:45 -79.86,-168.15 84.29 0.27 43
11 03/13/2020 19:58:07 79.77, 139.40 94.83 03/13/2020 19:57:58 79.78, 139.52 94.82 2.42 9




NCC Satellite Simultaneous Nadir Overpasses (SNOs) Prediction Service
